Delta Virtual Airport Information Service

Frankfurt Airport

ICAO: EDDF Country: Germany
Latitude: 50.0264 Longitude: 8.54313
Latest Arrival : DLH499 (MMMX-EDDF) Latest Departure : DLH1068 (2) (EDDF-LFMN)


WX CaptureLIVE
Data provided by noaa.gov | Fetched at 22:27:59

METAR : EDDF 240250Z VRB01KT 3200 1100E R25R/P2000N R25C/0900U R25L/P2000N R18/P2000N BCFG BR FEW001 10/10 Q1015 TEMPO 1200

TAF : EDDF 240102Z 2401/2506 20006KT 9999 FEW006 SCT020 TEMPO 2401/2408 4000 BR PROB40 TEMPO 2401/2407 0300 FG BKN001 BECMG 2407/2410 21012KT PROB30 TEMPO 2410/2416 22015G25KT BECMG 2418/2421 19006KT


Runway Data for EDDF
Data provided by openaviationdata.com

Runway ID Mag Var Hdg Length Elevation Surface ILS Freq ILS Id ILS Slope
07L 0 69° 9186 ft 364 ft Concrete 111.75 IFNE 3
07R 0 69° 13101 ft 364 ft Concrete 110.95 IFSE 3
07C 0 69° 13099 ft 364 ft Concrete 110.55 IFCE 3
18 0 179° 13110 ft 364 ft Concrete -- -- --
25L 0 249° 13101 ft 364 ft Concrete 111.15 IFSW 3
25R 0 249° 9186 ft 364 ft Concrete 111.35 IFNW 3
25C 0 249° 13099 ft 364 ft Concrete 111.55 IFCW 3
36 0 359° 13110 ft 364 ft Concrete -- -- --

Frankfurt Airport, Germany
Use only for reference purposes



Not for navigational purposes.